TimeMST,TemperatureF,Dew PointF,Humidity,Sea Level PressureIn,VisibilityMPH,Wind Direction,Wind SpeedMPH,Gust SpeedMPH,PrecipitationIn,Events,Conditions,WindDirDegrees,DateUTC
12:53 AM,25.0,19.0,78,30.14,10.0,WNW,5.8,-,N/A,,Clear,300,2013-02-07 07:53:00
1:53 AM,21.0,18.0,88,30.16,10.0,North,9.2,-,N/A,,Clear,360,2013-02-07 08:53:00
2:53 AM,19.9,16.0,85,30.17,10.0,Calm,Calm,-,N/A,,Clear,0,2013-02-07 09:53:00
3:53 AM,19.0,18.0,96,30.17,10.0,Calm,Calm,-,N/A,,Clear,0,2013-02-07 10:53:00
4:35 AM,17.6,15.8,93,30.11,1.5,Calm,Calm,-,N/A,,Clear,0,2013-02-07 11:35:00
4:45 AM,17.6,14.0,86,30.11,4.0,Calm,Calm,-,N/A,,Clear,0,2013-02-07 11:45:00
4:53 AM,17.1,12.9,84,30.21,10.0,NNW,3.5,-,N/A,,Clear,330,2013-02-07 11:53:00
5:53 AM,16.0,12.0,84,30.22,10.0,NW,4.6,-,N/A,,Clear,310,2013-02-07 12:53:00
6:53 AM,12.0,9.0,88,30.27,10.0,North,4.6,-,N/A,,Clear,350,2013-02-07 13:53:00
7:53 AM,15.1,10.9,84,30.26,10.0,Calm,Calm,-,N/A,,Clear,0,2013-02-07 14:53:00
8:53 AM,21.0,18.0,88,30.25,10.0,Calm,Calm,-,N/A,,Clear,0,2013-02-07 15:53:00
9:53 AM,30.9,21.9,69,30.20,10.0,NNW,3.5,-,N/A,,Clear,330,2013-02-07 16:53:00
10:53 AM,37.0,19.9,50,30.18,10.0,Calm,Calm,-,N/A,,Clear,0,2013-02-07 17:53:00
11:53 AM,41.0,18.0,40,30.13,10.0,Variable,5.8,-,N/A,,Clear,0,2013-02-07 18:53:00
12:53 PM,44.1,12.0,27,30.09,10.0,SSE,6.9,-,N/A,,Clear,150,2013-02-07 19:53:00
1:53 PM,46.0,10.9,24,30.07,10.0,South,9.2,-,N/A,,Clear,180,2013-02-07 20:53:00
2:53 PM,46.0,10.9,24,30.06,10.0,SE,9.2,-,N/A,,Clear,130,2013-02-07 21:53:00
3:53 PM,44.1,12.9,28,30.06,10.0,SE,9.2,-,N/A,,Clear,130,2013-02-07 22:53:00
4:53 PM,37.9,10.0,32,30.08,10.0,ESE,5.8,-,N/A,,Clear,120,2013-02-07 23:53:00
5:53 PM,30.9,8.1,38,30.11,10.0,SE,4.6,-,N/A,,Clear,130,2013-02-08 00:53:00
6:53 PM,28.9,7.0,40,30.13,10.0,Calm,Calm,-,N/A,,Clear,0,2013-02-08 01:53:00
7:53 PM,27.0,8.1,45,30.12,10.0,Calm,Calm,-,N/A,,Clear,0,2013-02-08 02:53:00
8:53 PM,25.0,7.0,46,30.10,10.0,Calm,Calm,-,N/A,,Clear,0,2013-02-08 03:53:00
9:53 PM,24.1,7.0,48,30.04,10.0,Calm,Calm,-,N/A,,Clear,0,2013-02-08 04:53:00
10:53 PM,19.9,9.0,62,30.04,10.0,Calm,Calm,-,N/A,,Clear,0,2013-02-08 05:53:00
11:53 PM,17.1,7.0,65,30.04,10.0,NW,3.5,-,N/A,,Clear,320,2013-02-08 06:53:00